Regional Weather Roundup
Issued by NWS Memphis, TN

Home | Current Version | Previous Version | Text Only | Print | Product List | Glossary On
Versions: 1 2 3 4 5 6 7 8 9 10 11 12 13 14 15 16 17 18 19 20 21 22 23 24 25 26 27 28 29 30 31 32 33 34 35 36 37 38 39 40 41 42 43 44 45 46 47 48 49 50
000
ASUS44 KMEG 031010
RWRMEG
MEMPHIS CWA HOURLY WEATHER ROUNDUP
NATIONAL WEATHER SERVICE MEMPHIS TN
500 AM CDT TUE AUG 03 2021

...WEST TENNESSEE...

CITY           SKY/WX    TMP DP  RH WIND       PRES   REMARKS
MEMPHIS INTL   PTCLDY    72  61  68 E8G17     30.01S
NWS MEMPHIS      N/A     67 N/A N/A MISG        N/A
JACKSON        CLEAR     61  60  97 CALM      30.03S FOG
COVINGTON      CLEAR     63  63 100 CALM      30.02S
LEXINGTON      MOCLDY    61  61 100 CALM      30.01F FOG
SELMER         PTCLDY    64  61  88 N5        30.02S
DYERSBURG      CLEAR     64  64 100 CALM      30.04S
UNION CITY     PTCLDY    63  63 100 CALM      30.02S
PARIS          MOCLDY    57  57 100 CALM      30.03S FOG


...EASTERN ARKANSAS...

CITY           SKY/WX    TMP DP  RH WIND       PRES   REMARKS
JONESBORO      CLEAR     67  64  90 NE5       30.04S
WEST MEMPHIS   PTCLDY    69  63  81 NE5       30.01S
BATESVILLE     CLOUDY    67  66  97 N3        30.05S
NEWPORT        PTCLDY    67  65  93 N3        30.04S
WALNUT RIDGE   CLEAR     66  66 100 N5        30.05S
BLYTHEVILLE    CLEAR     64  61  90 CALM      30.03S
SEARCY         MOCLDY    71  65  81 NE7       30.03S
STUTTGART      CLOUDY    72  71  97 NE7       30.01S
PINE BLUFF     CLOUDY    75  69  81 CALM      30.01R
MONTICELLO     CLEAR     70  68  93 CALM      29.99S


...NORTH MISSISSIPPI...

CITY           SKY/WX    TMP DP  RH WIND       PRES   REMARKS
TUPELO         CLEAR     69  66  90 N6        29.99S
OXFORD         PTCLDY    66  66 100 CALM      30.02S
BATESVILLE     PTCLDY    70  68  94 CALM      30.00S FOG
OLIVE BRANCH   MOCLDY    68  64  88 NE6       30.01S
TUNICA           N/A     68  66  94 E3        30.01S
CLARKSDALE     MOCLDY    72  72 100 CALM      30.00S FOG
CORINTH        PTCLDY    64  63  94 W3        30.02R
GREENWOOD      PTCLDY    71  68  90 CALM      29.98F FOG
COLUMBUS       PTCLDY    68  68 100 CALM      29.96S FOG
STARKVILLE     CLOUDY    66  66 100 CALM      29.97S FOG
GOLDEN TRIANGL CLEAR     68  68 100 N3        29.98F


...SOUTHEAST MISSOURI...

CITY           SKY/WX    TMP DP  RH WIND       PRES   REMARKS
MALDEN         CLEAR     66  61  82 N5        30.06S
WEST PLAINS    PTCLDY    64  61  90 CALM      30.11R
POPLAR BLUFF   PTCLDY    63  61  93 NW5       30.06R
CAPE GIRARDEAU CLEAR     60  59  96 W5        30.06R FOG


...NORTHWEST ALABAMA...

CITY           SKY/WX    TMP DP  RH WIND       PRES   REMARKS


...MIDDLE TENNESSEE...

CITY           SKY/WX    TMP DP  RH WIND       PRES   REMARKS
NASHVILLE      CLEAR     64  58  80 CALM      30.02S
CLARKSVILLE    PTCLDY    60  57  89 W3        30.03R
DICKSON        CLOUDY    59  57  94 CALM      30.02S
COLUMBIA       CLEAR     61  61 100 CALM      30.00S FOG
LAWRENCEBURG   CLOUDY    61  59  94 CALM      30.01S
LEWISBURG      PTCLDY    59  59 100 CALM      30.01S


...WESTERN KENTUCKY...

CITY           SKY/WX    TMP DP  RH WIND       PRES   REMARKS
PADUCAH        CLEAR     59  57  93 CALM      30.04R FOG
FORT CAMPBELL  PTCLDY    60  60  99 CALM      30.02S


...CENTRAL ARKANSAS...

CITY           SKY/WX    TMP DP  RH WIND       PRES   REMARKS
LITTLE ROCK    CLOUDY    71  68  90 NE6       30.01S


SKY/WX REPORTED AS FAIR MEANS FEW OR NO CLOUDS BELOW
12 THOUSAND FEET.




USA.gov is the U.S. government's official web portal to all federal, state and local government web resources and services.